Flag for Germany Weather past 2 weeks in Leimen, Baden-Württemberg, Germany

Now
55 °F

Partly sunny.


Feels Like: 54 °F
Forecast: 45 / 61 °F
Wind: 6 mph from South

Location: Baden Wurttemberg - Neuostheim

Current Time: Oct 25, 2014 at 1:31:43 PM

Latest Report: Oct 25, 2014 at 12:50 PM


Visibility: N/A

Pressure: 30.15 "Hg

Humidity: 72%

Dew point: 46 °F

Location of LeimenLocation

Historic Weather in Leimen — Graph

°F

Leimen temperature yesterday

Maximum temperature yesterday: 59 °F (at 3:20 PM)
Minimum temperature yesterday: 37 °F (at 6:20 AM)
Average temperature yesterday: 50 °F

Past Weeks' High & Low Weather Summary

 TemperatureHumidityPressure
High75 °F (Oct 19, 4:20 PM)100% (Oct 10, 6:50 PM)30.30 "Hg (Oct 10, 6:50 PM)
Low37 °F (Oct 24, 6:20 AM)57% (Oct 14, 3:20 PM)29.62 "Hg (Oct 21, 5:50 PM)
Average59 °F80%29.97 "Hg
* Reported Oct 10 12:20 PM — Oct 25 12:20 PM, Leimen, Weather by CustomWeather, © 2014

Note: Actual official high and low records may vary slightly from our data, if they occured in-between our weather recording intervals... More about our weather records

Advertising

Leimen weather history for previous 24 hours

 ConditionsComfort  
Time TempWeatherWind HumidityBarometerVisibility
12:20 PM
Oct 25
55 °FBroken clouds.5 mph77%30.15 "HgN/A
11:50 AM54 °FBroken clouds.5 mph77%30.15 "HgN/A
11:20 AM54 °FBroken clouds.5 mph77%30.15 "HgN/A
10:50 AM52 °FScattered clouds.5 mph82%30.15 "HgN/A
10:20 AM52 °FBroken clouds.6 mph82%30.12 "HgN/A
9:50 AM50 °FScattered clouds.3 mph88%30.12 "HgN/A
9:20 AM50 °FDrizzle. Partly sunny.3 mph88%30.12 "HgN/A
8:50 AM50 °FPassing clouds.3 mph82%30.12 "HgN/A
8:20 AM50 °FPassing clouds.2 mph82%30.12 "HgN/A
7:50 AM50 °FDrizzle. Overcast.5 mph82%30.09 "HgN/A
8:50 PM
Oct 24
48 °FClear.No wind87%30.12 "Hg10 mi
8:20 PM48 °FClear.2 mph94%30.12 "Hg10 mi
7:50 PM50 °FClear.2 mph88%30.12 "Hg10 mi
7:20 PM50 °FClear.2 mph82%30.12 "Hg10 mi
6:50 PM50 °FSunny.1 mph82%30.12 "Hg10 mi
6:20 PM55 °FSunny.2 mph67%30.12 "Hg10 mi
5:50 PM57 °FSunny.3 mph63%30.12 "Hg10 mi
5:20 PM57 °FPassing clouds.5 mph63%30.12 "HgN/A
4:50 PM57 °FPassing clouds.5 mph63%30.12 "HgN/A
4:20 PM57 °FPassing clouds.5 mph63%30.12 "HgN/A
3:50 PM59 °FPassing clouds.8 mph59%30.15 "HgN/A
3:20 PM59 °FPassing clouds.8 mph59%30.15 "HgN/A
2:50 PM57 °FPassing clouds.9 mph63%30.15 "HgN/A
2:20 PM57 °FPassing clouds.9 mph59%30.18 "HgN/A
1:50 PM57 °FPassing clouds.8 mph59%30.18 "HgN/A
1:20 PM55 °FPassing clouds.9 mph63%30.18 "HgN/A
Weather by CustomWeather, © 2014

See weather overviewHow to use our weather pages